Wind_Speed
24 25 26 26 26 26 25 23 21 21 21 20 19 19 18 17 17 16 15 14 13 13 12 11 11 11 10 9 8 8 8 7 7 7 8 8 8 8 9 9 8 8 7 7 7 7 7 7 7
25 26 27 28 28 27 26 24 23 23 23 22 21 21 20 19 18 18 17 16 15 14 14 14 13 12 12 11 10 9 9 9 9 9 9 9 10 10 10 10 10 10 9 9 9 9 9 9 9
27 27 28 29 29 28 26 25 25 25 25 24 23 23 22 21 20 19 19 18 17 16 16 16 15 14 14 13 12 11 11 11 11 11 11 11 11 12 12 12 12 12 11 11 11 11 11 11 11
28 29 30 30 29 27 27 26 27 27 27 26 25 24 23 22 21 20 20 20 19 18 18 17 17 17 16 15 14 14 13 12 12 12 12 12 12 13 13 13 13 13 13 13 13 13 13 13 12
30 30 31 31 30 28 28 28 27 27 28 27 26 26 25 24 23 22 22 21 21 20 20 19 19 18 18 17 17 16 15 15 15 14 14 14 14 14 15 15 15 15 15 15 16 15 15 15 14
31 31 32 31 30 29 29 29 29 28 28 28 28 27 26 25 25 24 23 23 22 22 21 21 21 21 20 20 19 18 18 17 17 16 16 16 16 16 16 16 17 17 17 17 17 17 17 17 17
33 33 33 32 31 30 29 30 30 29 29 29 29 28 27 26 26 25 24 24 24 23 23 23 23 22 22 22 21 21 20 20 19 19 19 18 18 18 18 19 19 18 19 19 19 19 20 19 19
33 34 33 32 32 31 31 32 32 31 31 30 30 29 28 28 27 26 26 26 25 25 25 25 25 24 24 23 23 23 23 22 22 21 21 21 21 20 20 20 20 20 20 20 21 21 22 22 21
33 34 33 31 31 32 32 33 34 32 32 32 32 31 30 30 29 29 28 28 28 27 27 27 27 27 27 26 25 25 25 25 24 24 23 23 23 22 22 22 22 22 23 23 22 23 23 24 23
33 34 32 32 32 32 33 33 34 35 34 33 33 33 33 31 31 31 30 30 30 29 29 28 29 28 28 28 28 27 27 27 27 26 26 25 25 25 25 24 24 24 25 25 24 25 25 25 25
32 32 32 33 33 33 34 35 34 35 35 34 34 34 35 34 32 32 32 32 32 31 31 30 30 30 30 30 30 30 29 29 28 28 28 28 28 28 27 27 27 27 27 27 27 27 27 27 27
33 32 32 33 34 34 34 36 36 37 36 36 36 35 36 35 35 34 34 34 34 33 33 33 33 32 32 32 32 32 32 31 30 30 30 30 30 30 30 30 29 29 28 28 29 29 29 29 29
33 33 33 34 35 35 36 37 37 37 37 38 38 38 38 38 37 36 36 36 36 35 36 35 35 34 34 33 33 33 33 33 33 32 32 32 32 32 31 31 31 31 30 30 30 30 30 30 30
34 34 34 34 35 36 36 37 38 37 38 39 39 40 40 40 39 38 39 39 38 38 38 38 37 37 36 35 35 35 35 35 34 34 34 34 34 34 34 33 33 32 32 32 32 31 31 31 31
34 35 35 35 36 36 37 38 37 37 38 39 40 40 40 41 41 40 40 41 41 40 40 39 39 39 39 38 37 37 36 36 36 36 36 36 35 35 35 35 35 34 34 33 33 33 33 32 32
34 35 35 34 35 36 37 37 37 38 39 39 39 40 41 41 41 41 41 42 42 43 42 41 41 41 41 40 38 38 38 38 38 38 38 38 37 37 37 36 36 36 36 35 35 35 35 35 34
34 35 35 35 35 36 37 36 37 38 39 40 40 41 42 42 43 43 42 42 43 44 44 43 42 42 42 42 40 40 40 39 39 40 39 39 39 38 38 38 38 38 38 37 37 37 37 37 36
33 34 35 35 36 36 37 37 37 38 39 41 41 42 43 43 44 45 45 44 44 44 44 45 44 43 42 42 42 41 41 41 41 41 40 40 40 40 40 40 40 40 40 40 40 40 40 39 39
33 34 35 36 37 38 38 38 39 39 40 41 42 43 43 44 45 45 46 46 45 44 45 45 45 44 44 44 43 43 42 42 42 42 42 42 42 42 42 42 42 41 41 41 42 42 42 42 41
34 34 35 36 36 38 39 39 39 40 42 42 43 43 44 44 44 46 46 47 46 46 46 46 46 46 46 45 44 44 44 44 44 44 43 44 43 43 43 43 43 43 44 44 44 44 44 44 44
35 35 35 35 36 37 39 40 39 40 42 43 43 44 43 44 44 45 45 45 46 46 46 46 47 46 47 47 46 46 47 47 47 47 46 46 46 46 46 45 45 45 46 46 46 46 46 46 46
35 35 35 36 37 37 38 40 39 39 40 42 42 42 42 42 43 44 44 45 45 46 47 47 46 46 47 47 47 47 47 47 48 48 48 47 47 47 47 47 48 47 47 47 48 48 48 48 47
35 35 36 36 37 38 37 38 37 37 38 39 40 41 42 42 42 43 44 44 44 45 46 47 47 47 47 47 47 47 47 48 48 48 49 48 48 48 48 48 48 49 49 48 49 49 49 49 49
34 35 35 35 36 37 35 36 36 35 35 36 38 40 41 42 43 43 44 45 45 45 44 45 46 47 47 48 47 47 47 47 48 48 48 49 49 49 49 49 49 49 49 49 49 50 50 50 50
33 33 34 35 35 36 34 35 35 34 34 35 36 38 39 40 41 42 43 44 45 45 46 45 46 47 47 48 48 48 48 48 49 49 50 50 49 49 49 50 50 50 49 49 49 49 50 50 50
32 33 34 35 35 35 34 35 34 34 33 33 34 35 37 38 39 40 42 43 44 45 46 46 46 47 47 48 49 49 49 50 50 49 50 50 50 50 50 50 49 49 49 49 49 49 50 51 51
31 32 33 34 35 35 34 34 33 33 33 33 33 34 35 36 38 39 40 42 43 44 44 46 47 48 48 49 49 49 50 50 50 50 50 50 51 51 51 51 51 51 51 50 50 50 51 51 52
32 31 32 34 35 35 34 33 32 32 32 32 33 33 33 34 36 38 39 41 42 43 43 45 47 47 47 47 48 48 49 49 49 49 50 50 50 50 51 52 53 53 53 52 52 52 52 53 53
31 31 32 34 35 35 35 33 32 31 31 32 32 32 32 33 34 36 37 39 41 42 43 44 45 45 45 45 47 47 48 48 48 49 50 50 51 51 51 51 52 53 53 53 54 54 54 54 54
31 31 32 33 34 36 36 33 31 31 31 32 32 32 33 34 34 35 35 37 38 40 40 41 42 43 43 44 44 45 46 47 48 49 50 50 51 51 51 51 51 52 53 54 54 54 55 55 55
Wind_Direction
243 241 239 239 239 239 242 242 241 240 240 239 238 236 237 238 237 239 239 238 240 241 240 240 242 243 244 245 244 243 240 238 236 234 232 232 234 235 237 238 241 243 248 255 259 261 262 263 268
244 243 241 240 239 240 241 243 243 241 241 242 241 238 237 237 239 239 240 239 241 243 243 243 244 246 246 246 246 246 245 244 243 243 243 242 242 242 243 244 245 245 247 253 260 262 263 265 268
244 243 242 241 241 241 243 243 243 242 242 242 243 241 239 239 239 241 242 242 242 243 244 244 245 246 246 247 247 248 248 247 246 248 249 248 249 248 249 251 250 249 251 254 260 263 264 266 268
245 244 243 243 242 241 242 242 242 243 243 242 243 243 242 241 241 242 242 243 243 244 244 245 246 246 248 249 249 248 249 249 249 249 250 252 253 254 253 254 255 254 255 257 260 263 264 266 268
246 246 245 245 244 242 241 241 242 244 244 243 244 244 243 243 243 243 243 244 244 244 245 246 248 248 249 250 250 250 251 251 252 252 253 254 256 257 256 257 257 258 258 259 261 262 262 263 265
247 247 247 246 243 242 240 240 242 243 244 243 244 244 243 243 243 243 244 244 244 245 246 246 248 249 249 251 251 250 250 252 253 255 255 256 256 257 257 257 257 258 260 260 261 262 263 265 266
247 248 248 246 243 240 240 240 241 241 242 242 243 244 243 243 243 244 244 245 245 245 246 247 248 248 250 251 252 252 252 252 253 254 255 257 258 258 258 258 258 258 259 259 260 261 261 262 265
247 247 247 245 243 242 240 239 241 242 241 242 243 243 243 244 245 246 246 247 247 246 247 248 249 250 250 252 253 253 254 254 254 255 256 257 257 258 258 258 258 259 258 259 260 261 262 263 264
247 247 246 245 244 243 242 241 241 242 242 242 242 244 244 245 246 246 248 249 248 248 248 249 251 251 251 252 253 254 255 255 255 256 257 257 258 258 258 259 259 259 258 258 260 261 264 264 265
248 248 247 245 244 243 243 244 244 245 243 242 243 244 245 246 246 247 248 249 249 249 250 250 251 252 252 253 254 254 254 255 255 256 257 258 258 258 259 259 259 259 259 259 260 262 263 264 265
249 248 247 245 245 243 243 243 244 245 244 243 243 243 244 246 247 248 248 249 249 250 251 252 252 253 253 253 253 254 254 255 256 256 257 258 258 259 260 260 259 260 261 261 262 263 262 263 264
248 248 247 245 244 244 244 245 245 245 244 245 244 244 244 246 247 247 248 249 250 249 251 252 253 254 254 254 254 254 255 255 256 257 257 258 258 259 260 261 261 261 262 263 264 264 263 262 262
248 248 246 244 244 245 245 245 247 247 245 245 245 245 246 246 247 248 248 249 250 251 252 252 253 254 254 254 254 254 254 255 256 257 257 258 258 258 259 260 262 262 262 263 263 263 263 262 263
248 248 247 245 245 246 246 247 248 248 248 247 246 247 248 248 248 249 249 249 251 252 252 253 253 254 254 255 255 255 255 255 256 257 257 258 258 258 259 260 261 262 262 262 262 263 263 264 264
248 248 248 246 246 246 247 248 249 249 249 248 248 248 249 250 249 250 250 251 251 252 253 254 254 254 254 255 256 255 255 255 255 256 257 257 258 259 259 260 260 261 262 262 262 263 263 264 264
249 248 248 248 248 247 249 250 250 250 250 249 249 249 250 251 250 250 251 252 253 254 254 254 254 254 254 254 255 255 256 256 257 256 256 257 258 259 259 259 260 260 261 262 262 263 263 264 264
250 250 250 249 249 249 250 251 250 250 250 250 249 250 250 251 251 251 252 253 255 255 254 254 254 254 254 254 255 256 257 257 258 258 257 257 257 258 258 259 259 260 260 261 262 262 263 264 264
253 253 252 250 250 251 251 252 251 251 251 251 251 251 252 252 252 252 253 254 256 256 254 254 254 254 255 256 256 257 258 258 258 258 258 258 258 258 258 259 260 260 261 261 261 262 262 263 264
253 254 254 253 253 253 253 254 253 252 252 252 252 252 253 253 253 254 254 255 256 256 254 253 254 254 255 256 257 257 257 258 258 258 258 258 259 259 259 260 260 261 261 261 261 262 263 263 263
255 256 256 256 256 256 256 256 255 254 254 253 253 253 254 255 255 255 254 254 255 255 254 254 254 253 254 255 256 256 256 257 258 258 259 259 259 259 259 260 261 261 261 261 261 262 263 263 264
255 258 258 258 259 259 259 257 256 255 255 254 254 254 254 255 256 255 254 255 256 255 254 254 254 254 255 255 255 256 257 257 258 258 258 259 259 259 260 260 261 262 262 263 263 263 263 263 264
257 259 260 260 261 261 261 261 258 258 256 255 254 254 255 256 256 256 255 255 256 256 254 254 255 255 256 255 255 255 256 257 258 259 259 259 260 260 260 261 262 262 263 263 263 262 262 263 263
258 259 261 262 262 262 262 263 260 259 258 257 256 256 257 257 257 256 256 256 256 256 255 255 254 255 255 256 256 256 256 257 258 259 259 259 260 260 260 261 262 262 263 264 263 262 263 263 264
257 259 261 261 262 262 262 263 262 261 262 261 259 259 259 259 258 257 256 255 256 255 255 255 255 255 255 256 257 257 257 257 257 258 259 260 260 260 260 261 262 263 263 264 263 263 263 264 264
256 258 260 261 261 262 262 263 264 264 264 264 263 261 260 259 258 258 257 256 256 256 256 256 255 255 255 256 257 258 259 259 259 259 260 260 260 260 260 261 262 263 263 263 263 262 262 262 263
257 258 259 262 263 264 263 263 265 265 265 265 264 263 261 260 259 259 258 258 258 257 257 255 255 256 256 257 258 258 259 259 260 259 260 260 260 260 261 261 262 263 264 263 263 263 262 263 264
258 257 259 261 264 265 265 265 266 267 267 267 266 265 264 263 262 261 261 260 259 259 259 258 257 257 257 257 258 260 260 260 260 260 260 260 261 261 262 262 262 263 264 264 264 265 264 264 265
258 258 259 260 263 266 267 267 268 268 268 267 266 265 264 265 264 264 264 262 262 261 261 260 260 260 259 259 258 259 260 260 260 260 261 261 261 262 263 264 263 264 265 264 264 265 266 265 266
257 257 259 260 262 265 268 270 269 271 270 269 267 266 266 266 266 265 264 264 264 264 263 262 261 261 261 261 262 261 261 260 260 261 263 263 262 263 264 265 265 265 265 265 265 265 266 266 266
258 259 259 260 262 264 267 270 270 271 270 269 268 267 267 268 268 267 266 264 265 265 265 263 262 261 262 263 263 263 263 262 263 264 265 265 265 264 265 265 265 265 265 266 265 265 265 266 266
Height
5805 5806 5809 5811 5813 5814 5816 5819 5822 5824 5826 5827 5829 5830 5832 5834 5837 5840 5840 5840 5841 5842 5844 5845 5846 5847 5848 5848 5849 5850 5851 5852 5853 5854 5855 5856 5857 5858 5859 5860 5861 5862 5863 5863 5864 5865 5865 5866 5866
5800 5802 5805 5806 5808 5809 5813 5816 5818 5820 5822 5824 5826 5827 5829 5831 5833 5835 5836 5837 5839 5840 5842 5843 5844 5845 5846 5847 5847 5848 5849 5850 5851 5852 5853 5854 5855 5856 5857 5858 5859 5860 5861 5862 5862 5863 5864 5864 5865
5795 5797 5800 5801 5803 5806 5810 5812 5814 5816 5818 5820 5822 5824 5826 5828 5829 5831 5833 5834 5836 5838 5839 5840 5841 5842 5843 5844 5845 5846 5847 5848 5849 5850 5851 5852 5853 5854 5855 5856 5857 5858 5859 5859 5860 5861 5861 5862 5863
5790 5793 5795 5797 5799 5803 5805 5807 5809 5811 5814 5816 5818 5820 5822 5824 5826 5828 5829 5831 5833 5835 5836 5837 5838 5840 5841 5842 5843 5844 5845 5845 5846 5847 5848 5849 5850 5851 5852 5853 5854 5855 5856 5857 5858 5858 5859 5860 5860
5785 5787 5789 5791 5794 5798 5800 5802 5804 5806 5809 5811 5814 5816 5818 5820 5822 5824 5826 5828 5829 5831 5833 5834 5835 5836 5838 5839 5840 5841 5842 5843 5844 5844 5845 5846 5847 5848 5849 5850 5851 5852 5853 5854 5855 5855 5856 5857 5857
5779 5781 5783 5786 5789 5793 5795 5797 5799 5801 5804 5806 5809 5811 5813 5816 5818 5820 5822 5823 5825 5827 5829 5830 5831 5833 5834 5835 5836 5837 5838 5840 5840 5841 5842 5843 5844 5845 5846 5847 5848 5849 5850 5851 5851 5852 5853 5853 5854
5773 5775 5777 5781 5784 5787 5790 5791 5794 5796 5798 5801 5803 5806 5809 5811 5813 5815 5817 5819 5821 5823 5825 5826 5827 5829 5830 5831 5832 5833 5835 5836 5837 5838 5839 5840 5841 5841 5842 5843 5844 5845 5846 5847 5848 5848 5849 5850 5850
5766 5769 5771 5774 5777 5781 5784 5785 5788 5790 5793 5796 5798 5801 5804 5806 5808 5810 5813 5814 5816 5818 5820 5822 5823 5824 5826 5827 5828 5829 5830 5831 5832 5834 5835 5836 5837 5837 5838 5839 5840 5841 5841 5842 5843 5844 5845 5845 5846
5760 5763 5764 5769 5772 5775 5777 5779 5781 5783 5786 5789 5792 5795 5798 5800 5803 5805 5807 5809 5811 5813 5815 5817 5818 5819 5821 5822 5823 5824 5826 5827 5828 5829 5830 5831 5832 5833 5834 5835 5835 5836 5837 5837 5838 5839 5840 5840 5841
5753 5755 5760 5763 5765 5768 5770 5772 5775 5777 5780 5783 5786 5789 5792 5794 5797 5799 5801 5803 5805 5807 5809 5811 5812 5814 5815 5817 5818 5819 5820 5821 5822 5824 5825 5826 5827 5828 5828 5829 5830 5831 5831 5832 5833 5834 5834 5835 5836
5746 5749 5753 5755 5758 5760 5763 5765 5768 5770 5773 5776 5780 5783 5785 5787 5790 5793 5795 5797 5799 5801 5802 5804 5806 5807 5809 5810 5812 5813 5814 5815 5817 5818 5819 5820 5821 5822 5823 5824 5824 5825 5826 5826 5827 5828 5829 5829 5830
5740 5743 5745 5748 5750 5753 5755 5758 5761 5763 5767 5769 5772 5775 5778 5780 5783 5785 5788 5790 5792 5794 5796 5797 5799 5801 5802 5803 5805 5806 5808 5809 5810 5811 5812 5814 5815 5816 5816 5817 5818 5819 5820 5820 5821 5822 5822 5823 5824
5734 5736 5738 5741 5743 5745 5748 5750 5753 5756 5759 5762 5764 5767 5770 5773 5775 5778 5780 5782 5784 5786 5788 5790 5792 5793 5795 5796 5797 5799 5800 5802 5803 5804 5805 5807 5808 5809 5810 5811 5811 5812 5813 5814 5814 5815 5816 5817 5817
5727 5729 5731 5733 5736 5738 5740 5743 5746 5749 5752 5754 5757 5759 5762 5765 5767 5770 5772 5774 5776 5778 5780 5782 5783 5785 5787 5788 5790 5791 5792 5794 5795 5797 5798 5799 5800 5801 5802 5803 5804 5805 5806 5807 5807 5808 5809 5810 5811
5719 5722 5724 5726 5728 5731 5733 5736 5739 5742 5744 5746 5749 5751 5754 5756 5759 5762 5764 5766 5768 5770 5772 5773 5775 5776 5778 5780 5781 5783 5784 5786 5787 5788 5790 5791 5792 5793 5794 5796 5797 5797 5798 5799 5800 5801 5802 5803 5804
5712 5714 5717 5720 5721 5723 5727 5729 5733 5734 5735 5738 5740 5743 5745 5748 5750 5753 5755 5757 5759 5761 5763 5764 5766 5767 5769 5771 5772 5774 5775 5777 5778 5780 5781 5782 5783 5785 5786 5787 5788 5789 5790 5791 5792 5793 5794 5795 5796
5704 5707 5710 5713 5714 5715 5718 5721 5724 5725 5727 5730 5732 5734 5736 5739 5741 5743 5745 5748 5749 5751 5753 5755 5756 5758 5760 5761 5763 5764 5766 5768 5769 5770 5772 5773 5774 5776 5777 5778 5779 5781 5782 5783 5784 5785 5786 5787 5788
5699 5700 5702 5704 5706 5707 5709 5712 5715 5716 5718 5720 5723 5725 5727 5729 5732 5734 5736 5738 5739 5741 5742 5744 5746 5748 5750 5751 5753 5754 5756 5758 5759 5761 5762 5764 5765 5766 5767 5769 5770 5771 5773 5774 5775 5776 5777 5778 5779
5691 5692 5694 5696 5697 5699 5701 5703 5706 5707 5709 5711 5713 5715 5717 5719 5722 5723 5725 5727 5729 5730 5732 5733 5735 5737 5739 5741 5743 5744 5746 5748 5749 5750 5752 5753 5755 5756 5758 5759 5760 5762 5763 5764 5765 5766 5767 5768 5770
5683 5684 5686 5687 5688 5690 5691 5693 5696 5697 5699 5701 5703 5705 5707 5709 5711 5713 5714 5716 5718 5720 5721 5723 5725 5727 5729 5731 5732 5734 5735 5737 5739 5740 5741 5743 5745 5746 5747 5749 5750 5751 5753 5754 5755 5756 5757 5758 5759
5675 5677 5678 5679 5679 5680 5681 5683 5686 5688 5689 5691 5692 5694 5696 5698 5700 5701 5703 5705 5707 5708 5710 5712 5714 5716 5718 5719 5721 5722 5724 5726 5727 5729 5731 5732 5734 5735 5737 5738 5740 5741 5742 5743 5744 5745 5746 5747 5748
5667 5669 5669 5669 5670 5670 5672 5672 5677 5678 5679 5680 5682 5684 5686 5687 5689 5690 5692 5694 5696 5697 5698 5700 5702 5704 5706 5708 5709 5711 5713 5714 5716 5718 5719 5721 5722 5724 5725 5727 5728 5729 5730 5732 5732 5733 5735 5736 5737
5659 5660 5660 5661 5660 5661 5662 5662 5667 5668 5669 5671 5673 5674 5675 5677 5678 5679 5681 5683 5684 5685 5687 5689 5691 5693 5694 5696 5698 5699 5701 5703 5704 5706 5708 5709 5711 5712 5714 5715 5716 5718 5719 5719 5720 5721 5722 5724 5725
5650 5651 5651 5651 5651 5652 5655 5654 5657 5659 5661 5662 5663 5664 5665 5666 5667 5668 5670 5671 5673 5674 5676 5677 5679 5681 5682 5684 5686 5688 5690 5692 5693 5695 5695 5697 5699 5700 5702 5703 5704 5705 5706 5707 5707 5708 5710 5711 5713
5642 5643 5643 5642 5642 5644 5647 5646 5649 5651 5652 5652 5653 5654 5654 5655 5656 5657 5658 5660 5662 5663 5664 5666 5667 5669 5671 5672 5674 5676 5678 5680 5681 5683 5684 5685 5687 5688 5689 5691 5692 5693 5694 5694 5695 5696 5697 5698 5700
5634 5635 5636 5635 5635 5637 5638 5638 5642 5642 5643 5643 5643 5644 5644 5645 5646 5647 5648 5649 5650 5651 5653 5654 5656 5657 5659 5661 5663 5664 5666 5667 5669 5670 5672 5673 5674 5675 5677 5678 5679 5680 5681 5682 5683 5684 5685 5686 5687
5625 5626 5627 5627 5627 5628 5629 5631 5634 5634 5634 5634 5635 5635 5635 5636 5636 5637 5638 5638 5639 5640 5641 5643 5644 5646 5648 5649 5651 5652 5653 5655 5656 5658 5659 5660 5661 5663 5664 5665 5666 5667 5668 5669 5670 5671 5672 5672 5674
5618 5619 5619 5619 5619 5619 5621 5624 5626 5626 5626 5626 5626 5626 5626 5626 5626 5627 5627 5628 5629 5630 5631 5631 5632 5634 5635 5637 5639 5640 5641 5642 5644 5645 5646 5648 5649 5650 5651 5652 5653 5654 5654 5655 5656 5657 5658 5659 5660
5611 5611 5611 5611 5611 5612 5613 5619 5618 5618 5617 5617 5617 5617 5617 5617 5617 5617 5617 5617 5618 5619 5620 5620 5622 5623 5624 5625 5627 5628 5629 5630 5631 5632 5634 5634 5635 5636 5638 5639 5639 5640 5640 5641 5642 5643 5644 5645 5646
5602 5603 5604 5604 5604 5604 5605 5611 5610 5609 5609 5608 5608 5608 5608 5608 5608 5608 5608 5608 5608 5609 5609 5610 5610 5612 5613 5614 5615 5616 5617 5618 5619 5620 5621 5621 5622 5623 5623 5624 5625 5625 5626 5627 5628 5629 5630 5631 5632